This is the latest recevied weather packets stored in our database for station/object W1ERB-13. If no packets are shown the sender has not sent any weather packets the latest 10 day(s).
| Time | Temp. | Humidity | Pressure | Rain* | Wind** | Luminosity | Snow |
|---|---|---|---|---|---|---|---|
| 1778012893 | 23.33° C | 54% | 1007.3 hPa | 0 mm | - | 399 W/m² | - |
| 1778012589 | 23.89° C | 51% | 1007.5 hPa | 0 mm | - | 418 W/m² | - |
| 1778012286 | 23.89° C | 51% | 1007.4 hPa | 0 mm | - | 440 W/m² | - |
| 1778011984 | 23.33° C | 52% | 1007.6 hPa | 0 mm | - | 459 W/m² | - |
| 1778011682 | 23.33° C | 52% | 1007.6 hPa | 0 mm | - | 474 W/m² | - |
| 1778011378 | 23.33° C | 53% | 1007.7 hPa | 0 mm | - | 479 W/m² | - |
| 1778011073 | 23.89° C | 52% | 1008.1 hPa | 0 mm | - | 494 W/m² | - |
| 1778010772 | 23.89° C | 52% | 1007.8 hPa | 0 mm | - | 519 W/m² | - |
| 1778010468 | 25° C | 50% | 1007.6 hPa | 0 mm | - | 524 W/m² | - |
| 1778010165 | 24.44° C | 53% | 1007.7 hPa | 0 mm | - | 508 W/m² | - |
| 1778009860 | 24.44° C | 51% | 1008.1 hPa | 0 mm | - | 567 W/m² | - |
| 1778009558 | 24.44° C | 50% | 1007.6 hPa | 0 mm | - | 574 W/m² | - |
| 1778009257 | 23.89° C | 52% | 1007.8 hPa | 0 mm | - | 572 W/m² | - |
| 1778008954 | 23.89° C | 52% | 1007.9 hPa | 0 mm | - | 600 W/m² | - |
| 1778008652 | 25° C | 52% | 1008 hPa | 0 mm | - | 610 W/m² | - |
| 1778008350 | 23.89° C | 52% | 1008 hPa | 0 mm | - | 619 W/m² | - |
| 1778008046 | 23.89° C | 51% | 1008.3 hPa | 0 mm | - | 634 W/m² | - |
| 1778007745 | 25° C | 50% | 1008.2 hPa | 0 mm | - | 623 W/m² | - |
| 1778007442 | 23.89° C | 51% | 1008 hPa | 0 mm | - | 619 W/m² | - |
| 1778007139 | 24.44° C | 53% | 1008 hPa | 0 mm | - | 652 W/m² | - |
| 1778006835 | 25° C | 50% | 1008.1 hPa | 0 mm | - | 662 W/m² | - |
| 1778006533 | 25.56° C | 48% | 1008.2 hPa | 0 mm | - | 666 W/m² | - |
| 1778006229 | 25° C | 48% | 1008.3 hPa | 0 mm | - | 657 W/m² | - |
| 1778005927 | 24.44° C | 50% | 1008 hPa | 0 mm | - | 665 W/m² | - |
| 1778005622 | 24.44° C | 51% | 1008.4 hPa | 0 mm | - | 675 W/m² | - |
* Rain latest hour (hover to see other rain measurements)
** Current wind speed in m/s (hover to see current wind gust speed)